Location: Bednik
(45.3500°N, 16.3833°E)
Time: 21:10:43
(UTC+00:00)

Resurs 1-3 - Pass Details

Date: 08 August 2020
Orbit: 629 x 632 km, 97.9° (Epoch: 20 September)

Event Time Altitude Azimuth Distance (km) Brightness Sun altitude
Exits shadow 18:35:07 - 148° (SSE) 2,759 6.3 -4.5°
Reaches altitude 10° 18:37:00 10° 142° (SE) 2,007 5.6 -4.8°
Maximum altitude 18:41:09 44° 71° (ENE) 876 4.1 -5.4°
Drops below altitude 10° 18:45:20 10° 359° (N) 2,024 6.6 -6.1°
Sets 18:47:37 0° 353° (N) 2,937 7.6 -6.4°
